www.pogodaiklimat.ru

Погода и климат >> Архив погоды >> Россия >> Ямало-Ненецкий АО >> Сеяха


ПОГОДА в Сеяхе

  • Прогноз погоды в Сеяхе
  • Монитор погоды в Сеяхе

АРХИВ ПОГОДЫ в Сеяхе

Время (UTC), дата Ветер
(напр.,м/с)
 
Видим.   Явления Облачность Т
(С)
Тd
(С)
f
(%)
Тe
(С)
Тes
(С)
Комфортность P
(гПа)
Po
(гПа)
Тmin
(С)
Tmax
(С)
R
(мм)
R24
(мм)
S
(см)
06 11.06 З 6 20 км 6/6 270 м
[Cu Sc]
+1.0 -2.0 80 -5 -4 1008.3 1006.1
09 11.06 З 5 20 км 6/6 480 м
[Cu Sc]
+1.6 -1.6 79 -4 -2 1007.9 1005.6
12 11.06 З 5 20 км 8/6 660 м
[Cu Sc Ac trans]
+2.1 -1.7 76 -3 -3 1007.3 1005.1
15 11.06 З 4 20 км 10/10 1200 м
[Sc]
+0.9 -1.9 82 -4 -4 1006.5 1004.3 +2.7
18 11.06 З 3 н/о н/о -0.1 -1.7 89 -5 -5 1005.4 1003.1
21 11.06 З 2 н/о н/о -0.7 -1.7 93 -5 -5 1004.1 1001.8
00 12.06 З 2 20 км 10/0
[Ac und]
-1.3 -2.6 91 -5 -5 1003.1 1000.8
03 12.06 ЮЗ 3 20 км 10/0
[Ac und]
+0.1 -2.6 82 -4 -3 1001.8 999.5 -1.6
06 12.06 ЮЗ 4 20 км 10/10 300 м
[Sc]
+1.2 -2.5 76 -4 -4 1000.4 998.2
09 12.06 Ю 3 4000 м слаб. ливневой снег 10/10 630 м
[Cb cap]
+0.6 -0.9 90 -4 -4 1000.4 998.1
12 12.06 Ю 3 20 км {ливн. осадки} 10/10 700 м
[Cb cap]
+1.6 -1.5 80 -3 -3 999.5 997.2
15 12.06 Ю 2 4000 м слаб. ливневой снег 10/10 360 м
[Cb cap]
+0.2 -0.9 92 -4 -4 998.7 996.5 +1.9 0.4
18 12.06 Ю 2 н/о н/о -0.6 -1.3 95 -5 -5 997.6 995.3
21 12.06 Ю 2 н/о н/о -1.4 -1.9 96 -5 -5 996.3 994.1
00 13.06 В 2 20 км 10/10 270 м
[St]
-1.4 -2.0 96 -5 -5 995.4 993.1
03 13.06 С 4 20 км 10/10 270 м
[St]
-0.8 -1.4 96 -7 -7 994.4 992.2 -1.7 0.0
06 13.06 СЗ 7 20 км 8/8 480 м
[Cu Sc]
+0.1 -1.4 90 -7 -6 993.3 991.0
09 13.06 СЗ 5
{13}
2000 м слаб. дождь туман 10/0 120 м
[As op]
+0.3 -0.3 96 -6 -5 991.5 989.3
12 13.06 С 5 500 м туман {дождь} ?/? +0.5 +0.1 97 -6 -6 990.9 988.7
15 13.06 С 8 2000 м дымка {туман} 10/10 120 м
[St]
+0.3 -0.2 96 -7 -7 990.6 988.4 +0.8 0.0
18 13.06 С 10-13
{13}
н/о н/о +0.3 -0.2 96 -8 -8 989.9 987.7
21 13.06 СВ 11-15
{15}
н/о н/о +0.5 +0.1 97 -8 -8 990.0 987.8
00 14.06 С 13-16
{17}
20 км 10/10 240 м
[St]
+0.7 -0.2 94 -8 -8 991.2 988.9
03 14.06 С 14-18
{18}
20 км 10/10 800 м
[Sc]
+0.3 -1.3 89 -9 -9 991.7 989.4 +0.2
06 14.06 С 11-16
{18}
20 км 10/10 240 м
[Sc]
-0.1 -1.6 90 -9 -9 992.5 990.3 -0.3
09 14.06 С 10-14
{18}
20 км 10/10 330 м
[St]
+0.2 -1.5 88 -8 -8 992.6 990.4
12 14.06 С 10-16
{17}
4000 м слаб. снег 10/0 300 м
[As op]
+0.1 -1.4 90 -8 -8 993.0 990.7
15 14.06 С 9-15
{18}
20 км {снег} 10/10 270 м
[St]
-0.2 -1.6 90 -8 -8 992.7 990.5 +0.7 0.3
18 14.06 СЗ 10-13
{16}
н/о н/о -0.2 -1.6 90 -9 -9 992.3 990.1
21 14.06 СЗ 8-11
{15}
н/о н/о -0.9 -2.2 91 -9 -9 991.9 989.7
00 15.06 СЗ 8-10
{12}
20 км 10/10 210 м
[St]
-1.6 -2.4 94 -10 -10 992.2 990.0
03 15.06 СЗ 6
{11}
20 км 10/10 270 м
[St]
-0.2 -1.8 89 -7 -7 992.7 990.5 -1.7
06 15.06 З 5 20 км 10/10 270 м
[St]
+1.2 -1.0 85 -5 -5 994.4 992.1
09 15.06 З 5 20 км 10/4 300 м
[Cu med, cong Ac As]
+2.4 -0.1 84 -3 -2 996.0 993.8
12 15.06 ЮЗ 5 2000 м 10/4 300 м
[Cu Sc Ac As]
+3.2 -0.1 79 -2 -1 997.2 995.0
15 15.06 Ю 3 20 км 10/10 660 м
[Sc]
+2.8 +0.2 83 -1 -1 997.4 995.2 +3.7
18 15.06 Ю 3 н/о н/о +1.7 +0.1 89 -3 -3 997.7 995.4
21 15.06 Ю 3 н/о н/о +1.3 +0.2 92 -3 -3 997.2 995.0
00 16.06 ЮЗ 3 20 км 10/10 300 м
[Sc]
+1.4 0.0 90 -3 -3 997.7 995.5
03 16.06 ЮЗ 2 20 км 10/10 360 м
[Cb cap]
+2.3 +0.2 86 -1 -1 997.9 995.7 +1.2
06 16.06 Ю 3 20 км 9/8 600 м
[Cu Sc Ac trans]
+3.7 +0.9 82 -0 +1 997.9 995.7
09 16.06 Ю 6 20 км 9/6 540 м
[Cu Sc Ac trans]
+4.4 +1.3 80 -1 0 997.8 995.6
12 16.06 Ю 3 20 км 9/6 570 м
[Cu Sc Ac trans]
+4.5 +2.0 84 +1 +2 998.1 995.9
15 16.06 Ю 4 20 км 8/0
[Ac trans Ci fib]
+3.6 +1.3 85 -1 -0 997.9 995.7 +4.9
18 16.06 ЮВ 4 н/о н/о +1.2 -0.2 90 -4 -4 997.8 995.6
21 16.06 ЮВ 4 н/о н/о +0.6 -0.2 94 -5 -5 996.5 994.3
00 17.06 ЮВ 6 20 км 4/0
[Ci fib]
+1.8 -0.3 86 -4 -4 995.9 993.7
03 17.06 ЮВ 7-10
{10}
20 км 6/3 300 м
[Cu med, cong Ac trans Ci fib]
+3.9 +0.5 78 -2 -1 995.2 993.0 +0.3
06 17.06 ЮВ 10-13
{13}
1000 м дымка 10/10 120 м
[St]
+4.0 +2.7 91 -3 -3 994.0 991.8
09 17.06 Ю 5
{14}
20 км 10/10 270 м
[St]
+4.1 +2.3 88 -1 -1 993.8 991.6
12 17.06 Ю 3 20 км 9/9 660 м
[Cu Sc]
+3.1 +1.0 86 -1 -1 995.3 993.1
15 17.06 Ю 5 20 км 8/4 600 м
[Cu Sc Ac trans]
+3.7 +1.3 84 -1 -1 996.0 993.8 +5.7
18 17.06 Ю 5 н/о н/о +2.0 +1.0 93 -4 -4 996.2 994.0
21 17.06 Ю 4 н/о н/о +1.5 -0.2 88 -4 -4 996.2 993.9
00 18.06 Ю 3 20 км 9/0
[Ac trans]
+2.3 +0.3 87 -2 -1 996.2 994.0

 

Местоположение метеостанции Сеяха (Ямало-Ненецкий АО, Россия): широта 70.17 долгота 72.52 высота над уровнем моря 18 м.

В архиве по умолчанию представлена погода в Сеяхе за последнюю неделю. Архивные данные за месяц целиком и за предыдущие месяцы, начиная с января 2011 года, Вы можете получить, выбрав интересующий диапазон дат из раскрывающегося списка и нажав кнопку "Ввод!".


*Определитесь, кто Вы:
робот инопланетянин человек

Внимание! Время в таблицах - всемирное. Для получения местного времени необходимо прибавить поправку, которая равна 5 ч.

Смотрите также архив погоды в соседних городах и на ближайших метеорологических станциях:

Погода в Тамбее (Ямало-Ненецкий АО, Россия) (148 км)
Погода в Антипаюте (Ямало-Ненецкий АО, Россия) (207 км)
Погода в Марресале (Ямало-Ненецкий АО, Россия) (224 км)
Погода в Гыде (Ямало-Ненецкий АО, Россия) (234 км)
Погода в Новом Порте (Ямало-Ненецкий АО, Россия) (277 км)
Погода в Усть-Каре (Ненецкий АО, Россия) (310 км)
Погода в Имени Попова (Ямало-Ненецкий АО, Россия) (362 км)
Погода в Тазовском (Ямало-Ненецкий АО, Россия) (390 км)
Погода в Ныде (Ямало-Ненецкий АО, Россия) (394 км)
Погода в Карауле (Красноярский край, Россия) (402 км)

Пояснения к столбцам:

Ветер - указаны скорость ветра в м/с - средняя за 10 мин, порывы в срок и между сроками (в фигурных скобках) и направление, откуда дует ветер: С - северный, СВ - северо-восточный, В - восточный, ЮВ - юго-восточный, Ю - южный, ЮЗ - юго-западный, З - западный, СЗ - северо-западный.
Видимость - горизонтальная дальность видимости в метрах или километрах. При видимости от 1 до 10 км при отсутствии осадков обычно наблюдается дымка, при ухудшении видимости до 1 км и менее - туман. В сухую погоду видимость может ухудшаться дымом, пылью или мглою.
Явления - указаны атмосферные явления, наблюдавшиеся в срок или в последний час перед сроком; фигурными скобками обозначены явления, наблюдавшиеся между сроками (за 1-3 часа до срока); квадратными скобками обозначены град или гололедные отложения с указанием их диаметра в мм.
Облачность - указаны через наклонную черту общая и нижняя облачность в баллах и высота нижней границы облаков в метрах; квадратными скобками обозначены формы облаков: Ci - перистые, Cs - перисто-слоистые, Cc - перисто-кучевые, Ac - высококучевые, As - высокослоистые, Sc - слоисто-кучевые, Ns - слоисто-дождевые, Cu - кучевые, Cb - кучево-дождевые. Подробнее классификацию облаков см. в Атласе облаков (PDF).
T - Температура воздуха - температура, измеренная на высоте 2 м над землей.
Td - Температура точки росы - температура, при понижении до которой содержащийся в воздухе водяной пар достигнет насыщения.
f - Относительная влажность воздуха - влажноcть воздуха, измеренная на высоте 2 м над землей.
Te - Эффективная температура - температура, которую ощущает одетый по сезону человек в тени. Характеристика душности погоды. При расчете учитывается влияние влажности воздуха и скорости ветра на теплоощущения человека.
Tes - Эффективная температура на солнце - температура, которую ощущает человек, с поправкой на солнечный нагрев. Характеристика знойности погоды. Зависит от высоты солнца над горизонтом, облачности и скорости ветра. Ночью, в пасмурную погоду, а также при ветре 12 м/с и более поправка равна нулю.
P - Атмосферное давление - приведенное к уровню моря атмосферное давление.
Po - Атмосферное давление - измеренное на уровне метеостанции атмосферное давление.
Tmin - Минимальная температура - минимум температуры воздуха на высоте 2 м над землей.
Tmax - Максимальная температура - максимум температуры воздуха на высоте 2 м над землей.
R - Количество осадков - Количество выпавших осадков за период времени, мм. При наведении курсора мыши на число - период времени, за который выпало указанное количество осадков.
R24 - Количество осадков - Количество выпавших осадков за 24 часа, мм.
S - Снежный покров - Высота снежного покрова, см. При наведении курсора мыши на число - состояние снежного покрова и степень покрытия местности в баллах.